Location: Livorno
(43.5500°N, 10.3170°E)
Time: 19:36:51
(UTC+01:00)

Envisat - Pass Details

Date: 29 October 2020
Orbit: 764 x 766 km, 98.1° (Epoch: 05 December)

Event Time Altitude Azimuth Distance (km) Brightness Sun altitude
Rises 05:05:55 0° 29° (NNE) 3,241 6.6 -19.5°
Reaches altitude 10° 05:09:01 10° 49° (NE) 2,309 6.1 -18.9°
Maximum altitude 05:12:22 18° 91° (E) 1,836 6.0 -18.3°
Drops below altitude 10° 05:15:42 10° 132° (SE) 2,297 6.2 -17.7°
Sets 05:18:45 0° 152° (SSE) 3,216 6.7 -17.2°
